Regional Weather Roundup
Issued by NWS Northern Indiana

Home | Current Version | Previous Version | Graphics & Text | Print | Product List | Glossary On
Versions: 1 2 3 4 5 6 7 8 9 10 11 12 13 14 15 16 17 18 19 20 21 22 23 24 25 26 27 28 29 30 31 32 33 34 35 36 37 38 39 40 41 42 43 44 45 46 47 48 49 50
000
ASUS43 KIWX 172001
RWRIWX

KIWX WEATHER ROUNDUP
NATIONAL WEATHER SERVICE NORTHERN INDIANA
400 PM EDT THU AUG 17 2017

NOTE: "FAIR" INDICATES FEW OR NO CLOUDS BELOW 12,000 FEET WITH NO
SIGNIFICANT WEATHER AND/OR OBSTRUCTIONS TO VISIBILITY.

* THESE STATIONS ARE NOT UNDER NWS QUALITY CONTROL. THEY ALSO MAY NOT
  REPORT WEATHER SUCH AS PRECIPITATION OR FOG.

INZ001>027-172100-
NORTHERN INDIANA

CITY           SKY/WX    TMP DP  RH WIND       PRES   REMARKS
GARY*          PTSUNNY   82  66  57 SW17G29   29.74F
MICHIGAN CITY* CLOUDY    82  68  61 SW17G24   29.75F
SOUTH BEND     CLOUDY    84  71  65 SW16G22   29.75F
ELKHART*       PTSUNNY   81  68  65 SW12G17   29.75F
GOSHEN         MOSUNNY   82  69  64 SW14      29.77F
MONTICELLO*    PTSUNNY   84  70  62 SW13G22   29.78F
WARSAW*        CLOUDY    82  70  65 SW14      29.79S
FORT WAYNE     PTSUNNY   83  67  58 SW14G25   29.79F
PERU/GRISSOM   CLOUDY    82  71  68 SW20      29.79F

$$
INZ028>050-172100-
CENTRAL INDIANA

CITY           SKY/WX    TMP DP  RH WIND       PRES   REMARKS
LAFAYETTE      MOSUNNY   81  70  69 W14G20    29.79F
KOKOMO*        CLOUDY    81  70  69 W18       29.82F
MUNCIE*        PTSUNNY   86  69  56 W14G24    29.81F
INDIANAPOLIS   PTSUNNY   84  68  58 W21       29.82F

$$
MIZ043>046-050>051-056>058-064>065-071>073-077>080-172100-
SOUTHWEST LOWER MICHIGAN

CITY           SKY/WX    TMP DP  RH WIND       PRES   REMARKS
BATTLE CREEK   PTSUNNY   84  71  65 SW14      29.74F
BENTON HARBOR  CLOUDY    84  67  56 SW18G25   29.74S
COLDWATER*     CLOUDY    81  72  73 SW10G16   29.76S
HILLSDALE*     CLOUDY    81  70  69 SW14      29.77F
HOLLAND        CLOUDY    79  70  74 SW22      29.72F
GRAND RAPIDS   PTSUNNY   82  71  69 W18       29.72S
KALAMAZOO      CLOUDY    85  67  54 SW14      29.73F
STURGIS*       PTSUNNY   83  72  68 SW14      29.75F
THREE RIVERS*  PTSUNNY   85  67  54 SW12G22   29.75F

$$
OHZ001>008-015>018-024>025-172100-
NORTHWEST OHIO

CITY           SKY/WX    TMP DP  RH WIND       PRES   REMARKS
DEFIANCE       CLOUDY    84  70  62 SW14G21   29.77F
FINDLAY        PTSUNNY   80  72  76 SW15      29.80F
TOLEDO EXPRESS CLOUDY    79  76  90 S8        29.76F
TOLEDO METCALF CLOUDY    79  76  90 S12       29.79F
LIMA           PTSUNNY   80  75  84 SW13G22   29.82F

$$
AND FOR LAKE MICHIGAN COASTAL AND OPEN LAKE BUOY OBSERVATIONS

STATION/POSITION TEMP    WIND        PRES    VSBY  WAVE
                 AIR SEA DIR/SP/G                  HT/PER
                 (F)     (DEG/KT/KT) (MB)    (MI)  (FT/S)
CALUMET HARBOR    81     210/ 10/ 21 1006.3F
MICHIGAN CITY     77     220/ 16/ 18   N/A
BURNS HARBOR      80     230/ 15/ 25 1007.8S
SAINT JOSEPH      77     230/ 12/ 15 1008.5
SOUTH LAKE BUOY   73 72  200/ 17/ 19 1005.4          3/ 5
4 MI NW BRIDGMAN  75 74  260/ 10/ 14 1006.8F         3/ 4
MICHIGAN CITY     78 75  230/ 14/ 19   N/A           3/ 3

$$
&&




USA.gov is the U.S. government's official web portal to all federal, state and local government web resources and services.